FW4018 Weather Reports


Display with metric or nautical units.
time (UTC)temp
F
wind
direction
speed
MPH
gust
MPH
rain 1hr
in
rain 24hr
in
rain mn
in
humidity
%
barometer
mb
20260504050517 51 84 3.0 7.0 0.00 0.01 0.01 100 1008.6
20260504045517 51 94 3.0 9.0 0.00 0.01 0.01 100 1008.6
20260504044517 51 92 3.0 8.0 0.00 0.01 0.01 100 1008.7
20260504043517 51 95 4.0 10.0 0.00 0.01 0.01 100 1008.8
20260504042517 51 99 4.0 10.0 0.00 0.01 0.01 100 1008.7
20260504041517 50 94 4.0 10.0 0.00 0.01 0.01 100 1008.7
20260504040517 50 104 5.0 10.0 0.00 0.01 0.01 100 1008.7
20260504035517 50 90 4.0 10.0 0.00 0.01 0.01 100 1008.7
20260504034517 50 98 4.0 8.0 0.00 0.01 0.01 100 1008.6
20260504033517 50 94 4.0 9.0 0.00 0.01 0.01 100 1008.5
20260504032518 50 89 4.0 9.0 0.00 0.01 0.01 100 1008.5
20260504031517 49 94 4.0 10.0 0.00 0.01 0.01 100 1008.4
20260504030517 49 104 2.0 5.0 0.00 0.01 0.01 100 1008.3
20260504025517 49 92 4.0 10.0 0.00 0.01 0.01 100 1008.3
20260504024517 49 93 4.0 10.0 0.00 0.01 0.01 100 1008.3
20260504023537 49 98 4.0 9.0 0.00 0.01 0.01 100 1008.3
20260504022517 49 94 4.0 8.0 0.00 0.01 0.01 100 1008.4
20260504021517 49 96 5.0 10.0 0.00 0.01 0.01 100 1008.3
20260504020517 49 98 5.0 12.0 0.00 0.01 0.01 100 1008.3
20260504015517 49 89 4.0 11.0 0.00 0.01 0.01 100 1008.1
20260504014557 49 101 4.0 9.0 0.00 0.01 0.01 100 1008.0
20260504013517 49 97 5.0 11.0 0.00 0.01 0.01 100 1008.0
20260504012537 49 97 5.0 10.0 0.00 0.01 0.01 100 1008.3
20260504011517 49 99 5.0 12.0 0.00 0.01 0.01 100 1008.3
20260504010517 49 86 3.0 8.0 0.00 0.01 0.01 100 1008.4
20260504005517 49 101 5.0 12.0 0.00 0.01 0.01 100 1008.5
20260504004517 49 94 4.0 11.0 0.00 0.01 0.01 100 1008.6
20260504003517 49 92 4.0 11.0 0.00 0.01 0.01 100 1008.5
20260504002518 48 80 5.0 10.0 0.00 0.01 0.01 100 1008.6
20260504001518 48 78 4.0 10.0 0.00 0.01 0.01 100 1008.7
20260504000519 48 86 6.0 13.0 0.00 0.01 0.01 100 1008.9
20260503235557 48 86 5.0 12.0 0.00 0.01 0.01 100 1008.9
20260503234517 48 92 5.0 11.0 0.00 0.01 0.01 100 1008.9
20260503233537 48 99 4.0 14.0 0.00 0.01 0.01 100 1008.9
20260503232517 48 73 4.0 10.0 0.01 0.01 0.01 100 1009.0
20260503231517 48 80 5.0 10.0 0.01 0.01 0.01 100 1009.1
20260503230518 48 81 2.0 4.0 0.01 0.01 0.01 100 1009.2
20260503225518 48 86 3.0 7.0 0.01 0.01 0.01 100 1009.4
20260503223517 48 93 4.0 10.0 0.01 0.01 0.01 100 1009.8
20260503222537 48 95 3.0 8.0 0.00 0.00 0.00 100 1009.9
20260503221517 48 93 4.0 10.0 0.00 0.00 0.00 100 1010.0
20260503220518 48 62 3.0 8.0 0.00 0.00 0.00 100 1010.1
20260503215517 48 89 4.0 10.0 0.00 0.00 0.00 100 1010.2
20260503214517 48 96 4.0 9.0 0.00 0.00 0.00 100 1010.4
20260503213517 48 95 4.0 8.0 0.00 0.00 0.00 100 1010.5
20260503212518 48 94 3.0 11.0 0.00 0.00 0.00 100 1010.5
20260503211537 48 93 4.0 11.0 0.00 0.00 0.00 100 1010.4
20260503210517 48 73 4.0 10.0 0.00 0.00 0.00 100 1010.3
20260503205517 48 81 4.0 9.0 0.00 0.00 0.00 100 1010.7
20260503204517 48 78 4.0 10.0 0.00 0.00 0.00 100 1010.9
20260503203517 48 85 3.0 9.0 0.00 0.00 0.00 100 1011.0
20260503202517 48 91 5.0 10.0 0.00 0.00 0.00 100 1011.2
20260503201517 49 95 4.0 13.0 0.00 0.00 0.00 100 1011.4
20260503200517 49 101 4.0 11.0 0.00 0.00 0.00 100 1011.6
20260503195518 49 89 4.0 11.0 0.00 0.00 0.00 100 1011.4
20260503194517 49 84 4.0 10.0 0.00 0.00 0.00 100 1011.7
20260503193517 49 100 3.0 7.0 0.00 0.00 0.00 100 1012.0
20260503192517 49 91 4.0 8.0 0.00 0.00 0.00 100 1012.2
20260503191517 49 90 4.0 9.0 0.00 0.00 0.00 100 1012.3
20260503190518 49 95 3.0 7.0 0.00 0.00 0.00 100 1012.2
20260503185515 49 93 3.0 9.0 0.00 0.00 0.00 100 1012.5
20260503183518 49 110 4.0 9.0 0.00 0.00 0.00 100 1012.9
20260503182518 49 96 2.0 5.0 0.00 0.00 0.00 100 1013.0
20260503181517 49 100 3.0 7.0 0.00 0.00 0.00 100 1013.1
20260503180517 49 104 2.0 4.0 0.00 0.00 0.00 100 1013.2
20260503175517 49 95 2.0 6.0 0.00 0.00 0.00 100 1013.2
20260503174558 49 107 2.0 6.0 0.00 0.00 0.00 100 1013.3
20260503173517 50 103 3.0 6.0 0.00 0.00 0.00 100 1013.4
20260503172516 50 87 3.0 6.0 0.00 0.00 0.00 100 1013.5
20260503171516 50 89 3.0 9.0 0.00 0.00 0.00 100 1013.5
20260503170536 50 105 3.0 6.0 0.00 0.00 0.00 100 1013.6
20260503150536 51 117 2.0 5.0 0.00 0.00 0.00 100 1014.1
20260503130516 54 98 4.0 6.0 0.00 0.00 0.00 83 1014.9
20260503110516 55 97 4.0 8.0 0.00 0.00 0.00 84 1016.0
20260503081516 55 98 4.0 12.0 0.00 0.00 0.00 80 1017.2
20260503080536 55 101 5.0 10.0 0.00 0.00 0.00 80 1017.2
20260503072516 52 123 4.0 12.0 0.00 0.00 0.00 84 1017.2